"TOA5","AWS1","CR1000","7964","CR1000.Std.14","CPU:AWS1_114.CR1","64363","TBL110"
"TIMESTAMP","RECORD","Wind_spd_WVc(1)","Wind_spd_WVc(2)","Air_Temp_Avg","Humidity_Avg","SW_upper_Wm2_Avg","Rain_Tot","Press_Avg","Issui_Tot","Depth_cm","SR50A_Raw","Quality","Ground_Temp_Avg(1)","Ground_Temp_Avg(2)","SW_lower_Wm2_Avg","Albedo_Avg","SWC_per(1)","SWC_per(2)","Period(1)","Period(2)"
"TS","RN","","","","","","","","","","","","","","","","","","",""
"","","WVc","WVc","Avg","Avg","Avg","Tot","Avg","Tot","Smp","Smp","Smp","Avg","Avg","Avg","Avg","Smp","Smp","Smp","Smp"
"2017-02-26 00:00:00",276829,0,0,-5.497,79.16,0,0,863.246,0,101.3,2.19,182,0.955,1.588,0.03035779,0,52.72,60.86,33.96,35.88
"2017-02-26 00:10:00",276830,0.033,265.3,-5.493,80.6,0,0,863.4379,0,101.5,2.187,188,0.959,1.585,0.1441995,0,52.77,60.86,33.98,35.88
"2017-02-26 00:20:00",276831,0.11,192.1,-6.22,81.4,0,0,863.4359,0,101.5,2.191,187,0.961,1.584,0.003794723,0,52.72,60.8,33.96,35.86
"2017-02-26 00:30:00",276832,0.198,155.5,-6.42,83.1,0,0,863.3621,0,101.5,2.191,192,0.966,1.585,0,0,52.72,60.8,33.96,35.86
"2017-02-26 00:40:00",276833,0.162,190.5,-6.24,84.2,0,0,863.3578,0,101.6,2.188,183,0.967,1.561,0.02656307,0,52.72,60.8,33.96,35.86
"2017-02-26 00:50:00",276834,0.029,190.5,-5.987,83.2,0,0,863.3409,0,101.3,2.193,188,0.958,1.547,0.02656307,0,52.77,60.8,33.98,35.86
"2017-02-26 01:00:00",276835,0.112,205.8,-6.452,85.4,0,0,863.1933,0,101.3,2.193,188,0.953,1.544,0.03035779,0,52.77,60.8,33.98,35.86
"2017-02-26 01:10:00",276836,0.187,289.1,-6.504,86,0,0,863.0752,0,101.8,2.187,185,0.957,1.524,0,0,52.77,60.8,33.98,35.86
"2017-02-26 01:20:00",276837,0.02,290.2,-6.199,84.6,0,0,863.1174,0,101.5,2.192,187,0.948,1.516,0.08727863,0,52.72,60.8,33.96,35.86
"2017-02-26 01:30:00",276838,0.243,198.1,-6.777,86.1,0,0,863.2629,0,101.4,2.193,188,0.955,1.512,0,0,52.72,60.8,33.96,35.86
"2017-02-26 01:40:00",276839,0.093,187.7,-6.729,86.2,0,0,863.4654,0,101.4,2.194,187,0.963,1.514,0,0,52.77,60.8,33.98,35.86
"2017-02-26 01:50:00",276840,0.47,196.2,-6.909,87.3,0,0,863.4759,0,101.5,2.193,178,0.957,1.528,0,0,52.72,60.8,33.96,35.86
"2017-02-26 02:00:00",276841,0.155,196,-7.014,87.7,0,0,863.4802,0,101.5,2.194,187,0.964,1.543,0,0,52.72,60.8,33.96,35.86
"2017-02-26 02:10:00",276842,0.308,196.2,-6.989,87.7,0,0,863.4717,0,101.6,2.192,187,0.968,1.536,0,0,52.72,60.8,33.96,35.86
"2017-02-26 02:20:00",276843,0.244,195.2,-6.941,87.4,0,0,863.4105,0,101.4,2.195,186,0.982,1.533,0,0,52.77,60.8,33.98,35.86
"2017-02-26 02:30:00",276844,0.114,171.4,-7.228,88.5,0,0,863.2587,0,101.7,2.191,186,0.985,1.536,0.01138417,0,52.72,60.8,33.96,35.86
"2017-02-26 02:40:00",276845,0.239,46.9,-5.808,82.7,0.2912387,0,863.3156,0,101.4,2.187,187,0.985,1.534,1.206722,3.353,52.72,60.8,33.96,35.86
"2017-02-26 02:50:00",276846,0.458,335.4,-5.355,78.6,0.287303,0,863.4042,0,101.4,2.187,192,0.968,1.515,0.8765811,3.233,52.77,60.8,33.98,35.86
"2017-02-26 03:00:00",276847,0.257,338.4,-5.37,79.82,0,0,863.4696,0,100.9,2.193,190,0.944,1.513,0.2580412,0,52.72,60.8,33.96,35.86
"2017-02-26 03:10:00",276848,0.085,328.9,-6.308,84,0,0,863.3536,0,101.2,2.193,178,0.941,1.506,0,0,52.77,60.8,33.98,35.86
"2017-02-26 03:20:00",276849,0.31,34.25,-5.629,83.1,0,0,863.2797,0,101.3,2.188,175,0.94,1.51,0.4857246,0,52.72,60.8,33.96,35.86
"2017-02-26 03:30:00",276850,1.015,199.2,-5.23,79.81,0,0,863.2186,0,101.3,2.188,183,0.929,1.508,0.4781351,0,52.72,60.8,33.96,35.86
"2017-02-26 03:40:00",276851,0.553,200.4,-4.974,78.64,0,0,863.2186,0,101.4,2.186,181,0.917,1.512,0.314962,0,52.77,60.8,33.98,35.86
"2017-02-26 03:50:00",276852,0.433,271,-5.035,79.51,0,0,863.2882,0,101.1,2.191,174,0.92,1.522,0.1404048,0,52.72,60.8,33.96,35.86
"2017-02-26 04:00:00",276853,0.09,325.7,-5.531,84.3,0,0,863.4422,0,101,2.192,191,0.917,1.542,0,0,52.72,60.8,33.96,35.86
"2017-02-26 04:10:00",276854,0.149,111.9,-5.559,87.6,0,0,863.265,0,101.2,2.19,192,0.94,1.568,0.01897362,0,52.72,60.74,33.96,35.85
"2017-02-26 04:20:00",276855,0.68,206.4,-5.395,85.8,0,0,863.3093,0,101.3,2.189,187,0.93,1.585,0.2276834,0,52.72,60.74,33.96,35.85
"2017-02-26 04:30:00",276856,0.4,212.6,-5.42,86.2,0,0,863.2186,0,100.7,2.195,193,0.924,1.6,0.1555836,0,52.72,60.74,33.96,35.85
"2017-02-26 04:40:00",276857,0.477,184.1,-5.53,88.2,0,0,863.2186,0,100.7,2.195,194,0.92,1.618,0,0,52.72,60.8,33.96,35.86
"2017-02-26 04:50:00",276858,0.112,201.7,-5.471,89.4,0,0,863.2186,0,101.1,2.191,208,0.925,1.635,0.0645103,0,52.72,60.74,33.96,35.85
"2017-02-26 05:00:00",276859,0.057,294.3,-5.247,89.5,0,0,863.2186,0,101.1,2.191,218,0.923,1.664,0.1441995,0,52.72,60.74,33.96,35.85
"2017-02-26 05:10:00",276860,0.174,209.5,-5.253,89.9,0,0,863.3008,0,101.3,2.188,231,0.917,1.663,0.1517889,0,52.72,60.74,33.96,35.85
"2017-02-26 05:20:00",276861,0.361,207.5,-5.3,90.3,0,0,863.5983,0,101.4,2.187,234,0.917,1.655,0.2125045,0,52.72,60.68,33.96,35.83
"2017-02-26 05:30:00",276862,0.427,201.7,-5.149,90.3,0,0,863.7164,0,101.3,2.187,222,0.914,1.663,0.2542465,0,52.66,60.74,33.95,35.85
"2017-02-26 05:40:00",276863,0.612,249.2,-4.876,88.2,0,0,863.7248,0,101.4,2.185,231,0.933,1.64,0.2352729,0,52.72,60.74,33.96,35.85
"2017-02-26 05:50:00",276864,0.405,183.2,-4.81,87.7,0,0,863.7438,0,101.3,2.187,223,0.961,1.634,0.1973256,0,52.72,60.74,33.96,35.85
"2017-02-26 06:00:00",276865,0.417,174,-4.943,88.6,0,0,863.7775,0,101.3,2.187,223,0.978,1.63,0.02656307,0,52.72,60.74,33.96,35.85
"2017-02-26 06:10:00",276866,0.401,224.6,-5.089,89,0,0,863.98,0,101.9,2.182,255,0.984,1.638,0.06830502,0,52.72,60.74,33.96,35.85
"2017-02-26 06:20:00",276867,0.615,251.1,-5.125,89.5,0,0,864.174,0,101.6,2.185,230,0.978,1.629,0.4401879,0,52.72,60.74,33.96,35.85
"2017-02-26 06:30:00",276868,1.081,290.5,-5.122,87.8,0.03148527,0,864.231,0,101.1,2.189,207,0.971,1.636,1.662089,1.43,52.72,60.74,33.96,35.85
"2017-02-26 06:40:00",276869,0.688,267.3,-5.133,86.5,2.684119,0,864.2352,0,101.7,2.184,235,0.97,1.639,3.927539,2.036,52.72,60.74,33.96,35.85
"2017-02-26 06:50:00",276870,0.732,244.2,-5.169,86.3,6.21834,0,864.2816,0,101.4,2.187,223,0.973,1.639,6.545898,1.076,52.72,60.74,33.96,35.85
"2017-02-26 07:00:00",276871,0.563,292.6,-5.217,86.2,11.92898,0,864.3639,0,100.9,2.192,195,0.977,1.635,10.53795,0.886,52.72,60.74,33.96,35.85
"2017-02-26 07:10:00",276872,0.335,234.1,-5.316,85.9,14.20379,0,864.4862,0,101.1,2.19,200,0.968,1.641,12.52638,0.885,52.72,60.74,33.96,35.85
"2017-02-26 07:20:00",276873,0.672,181.6,-5.478,84.4,21.82716,0,864.4862,0,101.2,2.19,206,0.955,1.65,17.94525,0.817,52.72,60.74,33.96,35.85
"2017-02-26 07:30:00",276874,0.513,172,-5.192,80.5,35.22021,0,864.501,0,101.3,2.187,222,0.963,1.644,29.95175,0.846,52.72,60.74,33.96,35.85
"2017-02-26 07:40:00",276875,0.74,175.5,-4.782,76.54,74.39182,0,864.4841,0,101.4,2.185,220,0.98,1.64,47.35435,0.722,52.72,60.74,33.96,35.85
"2017-02-26 07:50:00",276876,0.489,146.8,-4.51,73.32,173.7042,0,864.5073,0,101.2,2.185,204,1.015,1.638,63.23527,0.372,52.72,60.74,33.96,35.85
"2017-02-26 08:00:00",276877,0.483,157.2,-4.01,71.74,72.45547,0,864.5706,0,101.3,2.182,218,1.053,1.634,70.1834,1.202,52.72,60.74,33.96,35.85
"2017-02-26 08:10:00",276878,0.906,168,-3.481,68.51,53.59186,0,864.7103,0,101.2,2.182,211,1.031,1.631,76.83176,1.455,52.77,60.74,33.98,35.85
"2017-02-26 08:20:00",276879,0.88,262.1,-3.536,64.96,51.9761,0,864.7006,0,101.3,2.181,206,0.993,1.59,76.65781,1.48,52.72,60.74,33.96,35.85
"2017-02-26 08:30:00",276880,0.986,153.8,-3.279,63.79,82.98473,0,864.6645,0,101.3,2.18,206,0.938,1.617,82.32647,1.15,52.66,60.74,33.95,35.85
"2017-02-26 08:40:00",276881,0.778,153.3,-3.127,59.6,85.50981,0,864.7288,0,101.4,2.178,219,0.893,1.604,86.02873,1.047,52.72,60.74,33.96,35.85
"2017-02-26 08:50:00",276882,0.831,147.9,-2.942,60.2,77.57442,0,864.6811,0,100.9,2.182,191,0.885,1.562,83.21432,1.148,52.72,60.74,33.96,35.85
"2017-02-26 09:00:00",276883,0.604,269.3,-2.996,60.31,58.22429,0,864.7773,0,101.1,2.181,215,0.941,1.559,74.01783,1.273,52.72,60.68,33.96,35.83
"2017-02-26 09:10:00",276884,0.625,246.5,-2.784,58.51,81.87717,0,864.6716,0,101.5,2.176,235,0.958,1.571,68.74084,0.908,52.72,60.68,33.96,35.83
"2017-02-26 09:20:00",276885,0.424,295.1,-2.787,57.93,114.1102,0,864.6463,0,101.1,2.179,208,0.968,1.55,67.81449,0.686,52.72,60.68,33.96,35.83
"2017-02-26 09:30:00",276886,0.282,310.1,-2.527,56.48,76.39521,0,864.6197,0,101.5,2.174,212,0.923,1.529,66.20582,0.909,52.66,60.68,33.95,35.83
"2017-02-26 09:40:00",276887,1.023,274.8,-2.313,54.32,67.18022,0,864.5505,0,101.1,2.179,205,0.903,1.53,67.84673,1.01,52.66,60.68,33.95,35.83
"2017-02-26 09:50:00",276888,0.449,266.7,-2.373,55.61,69.85091,0,864.4882,0,101.4,2.175,210,0.887,1.54,70.33059,1.007,52.66,60.68,33.95,35.83
"2017-02-26 10:00:00",276889,0.455,207.7,-2.038,55.86,74.46423,0,864.4237,0,100.6,2.18,187,0.874,1.553,72.38929,0.972,52.72,60.68,33.96,35.83
"2017-02-26 10:10:00",276890,0.96,300,-2.009,54.85,132.4655,0,864.4313,0,100.9,2.181,173,0.86,1.549,75.80299,0.765,52.72,60.68,33.96,35.83
"2017-02-26 10:20:00",276891,1.026,10.05,-1.975,54.46,173.8785,0,864.3509,0,100.9,2.177,182,0.855,1.533,81.70601,0.678,52.72,60.68,33.96,35.83
"2017-02-26 10:30:00",276892,1.06,353.9,-1.689,55.96,100.1219,0,864.4858,0,101,2.177,186,0.857,1.545,98.33025,0.983,52.66,60.68,33.95,35.83
"2017-02-26 10:40:00",276893,0.796,334.3,-1.78,58.37,122.6262,0,864.4648,0,101.1,2.175,169,0.855,1.541,119.3309,0.992,52.72,60.68,33.96,35.83
"2017-02-26 10:50:00",276894,0.656,313.2,-1.714,60.65,171.8119,0,864.4901,0,101,2.176,170,0.859,1.533,135.7129,0.784,52.72,60.68,33.96,35.83
"2017-02-26 11:00:00",276895,0.743,308.1,-1.464,61.73,231.9588,0,864.5449,0,101.2,2.174,170,0.883,1.518,150.0434,0.659,52.66,60.68,33.95,35.83
"2017-02-26 11:10:00",276896,0.553,338.5,-1.317,62.42,167.8357,0,864.528,0,101.3,2.172,170,0.865,1.502,143.2744,0.855,52.72,60.68,33.96,35.83
"2017-02-26 11:20:00",276897,0.461,282.5,-1.269,62.09,196.9672,0,864.5491,0,101.2,2.173,170,0.863,1.473,161.0823,0.82,52.72,60.68,33.96,35.83
"2017-02-26 11:30:00",276898,0.712,318.3,-0.936,61.57,199.2759,0,864.5554,0,100.9,2.175,187,0.86,1.465,190.5016,0.957,52.72,60.68,33.96,35.83
"2017-02-26 11:40:00",276899,0.728,312.1,-0.815,61.47,295.0791,0,864.5554,0,100.6,2.178,186,0.855,1.479,237.6948,0.8,52.72,60.68,33.96,35.83
"2017-02-26 11:50:00",276900,1.037,14.84,-1.13,61.56,296.3888,0,864.5554,0,100.7,2.177,186,0.854,1.491,202.8223,0.673,52.72,60.68,33.96,35.83
"2017-02-26 12:00:00",276901,0.767,326.3,-0.67,59.24,527.4375,0,864.5491,0,100.4,2.178,183,0.853,1.514,301.388,0.578,52.72,60.68,33.96,35.83
"2017-02-26 12:10:00",276902,0.383,276.2,-0.309,59.24,600.5322,0,864.5109,0,100.4,2.174,174,0.866,1.544,360.1844,0.587,52.72,60.68,33.96,35.83
"2017-02-26 12:20:00",276903,0.681,347.7,0.404,54.7,767.5654,0,864.4528,0,100.1,2.178,179,0.962,1.544,466.3868,0.604,52.66,60.68,33.95,35.83
"2017-02-26 12:30:00",276904,0.764,316.9,-0.109,56.98,412.6288,0,864.2444,0,100.6,2.176,176,0.903,1.487,242.7506,0.586,52.66,60.68,33.95,35.83
"2017-02-26 12:40:00",276905,0.476,328.3,-0.045,56.49,521.0821,0,864.2111,0,100.8,2.172,183,0.839,1.463,317.4182,0.607,52.66,60.68,33.95,35.83
"2017-02-26 12:50:00",276906,0.624,338.5,0.293,54.69,548.6859,0,864.1345,0,100.5,2.175,180,0.794,1.479,330.8021,0.601,52.72,60.68,33.96,35.83
"2017-02-26 13:00:00",276907,0.688,343.6,-0.29,57.5,294.3075,0,864.1227,0,100.9,2.173,189,0.779,1.464,174.2879,0.591,52.66,60.68,33.95,35.83
"2017-02-26 13:10:00",276908,0.498,300.1,-0.3,59.79,350.3621,0,864.1171,0,100.6,2.176,193,0.768,1.457,207.9085,0.591,52.72,60.68,33.96,35.83
"2017-02-26 13:20:00",276909,0.565,86.3,-0.433,60.24,402.7968,0,864.0368,0,100.7,2.173,193,0.768,1.443,243.4828,0.601,52.72,60.68,33.96,35.83
"2017-02-26 13:30:00",276910,0.497,161.9,0.297,59.2,335.4974,0,863.8724,0,100.7,2.172,192,0.763,1.437,198.8527,0.586,52.66,60.68,33.95,35.83
"2017-02-26 13:40:00",276911,0.923,313.8,-0.379,59.76,250.7484,0,863.8682,0,100.7,2.174,191,0.766,1.406,146.0074,0.582,52.66,60.68,33.95,35.83
"2017-02-26 13:50:00",276912,0.608,285.6,-0.35,58.68,240.2231,0,863.8682,0,100.7,2.176,182,0.765,1.404,139.8493,0.581,52.66,60.68,33.95,35.83
"2017-02-26 14:00:00",276913,1.476,311.8,-1.159,62.65,123.1477,0,863.8682,0,101,2.176,192,0.792,1.383,73.02452,0.593,52.72,60.68,33.96,35.83
"2017-02-26 14:10:00",276914,0.438,268.3,-1.136,66.31,242.593,0,863.8682,0,100.8,2.176,192,0.83,1.408,130.4664,0.554,52.72,60.68,33.96,35.83
"2017-02-26 14:20:00",276915,0.585,285.7,-0.953,62.29,279.6753,0,863.9883,0,100.8,2.176,186,0.824,1.391,141.3462,0.526,52.66,60.68,33.95,35.83
"2017-02-26 14:30:00",276916,0.594,266.9,-1.004,61.07,218.8305,0,864.0346,0,100.7,2.176,190,0.844,1.403,127.2946,0.582,52.66,60.62,33.95,35.82
"2017-02-26 14:40:00",276917,0.425,299.9,-0.819,61.25,174.1117,0,864.1104,0,100.7,2.176,190,0.847,1.42,101.2528,0.581,52.66,60.68,33.95,35.83
"2017-02-26 14:50:00",276918,0.492,129.6,-0.885,64.47,122.5543,0,864.1146,0,100.8,2.176,190,0.848,1.414,71.3913,0.583,52.66,60.62,33.95,35.82
"2017-02-26 15:00:00",276919,0.216,195.1,-0.845,64.09,141.9597,0,864.121,0,100.7,2.177,187,0.858,1.43,83.79395,0.59,52.66,60.62,33.95,35.82
"2017-02-26 15:10:00",276920,0.223,286,-0.801,64.5,106.6743,0,864.1483,0,100.7,2.176,178,0.873,1.476,62.56382,0.587,52.66,60.62,33.95,35.82
"2017-02-26 15:20:00",276921,0.358,313.5,-0.878,63.37,159.5519,0,864.2581,0,100.4,2.179,172,0.894,1.496,94.10793,0.591,52.66,60.62,33.95,35.82
"2017-02-26 15:30:00",276922,0.738,17.99,-0.923,61.58,136.2487,0,864.1593,0.5,100.6,2.178,174,0.912,1.521,79.12429,0.58,52.6,60.62,33.94,35.82
"2017-02-26 15:40:00",276923,0.6,1.925,-1.042,63.13,104.7556,0,864.3342,0,100.6,2.177,173,0.91,1.525,61.50481,0.587,52.66,60.62,33.95,35.82
"2017-02-26 15:50:00",276924,0.539,14.12,-0.97,62.94,98.82058,0,864.2419,0,100.5,2.178,174,0.862,1.528,58.04099,0.586,52.66,60.62,33.95,35.82
"2017-02-26 16:00:00",276925,0.326,286.9,-1.131,64.77,45.60677,0,864.4711,0,100.6,2.18,173,0.796,1.472,27.1537,0.594,52.66,60.62,33.95,35.82
"2017-02-26 16:10:00",276926,0.332,355,-1.348,65.59,82.50908,0,864.463,0,100.5,2.18,173,0.768,1.453,49.27327,0.598,52.6,60.62,33.94,35.82
"2017-02-26 16:20:00",276927,0.782,336.6,-1.486,66.6,75.17664,0,864.4641,0,100.5,2.181,174,0.768,1.451,44.28834,0.59,52.66,60.62,33.95,35.82
"2017-02-26 16:30:00",276928,0.762,299.5,-1.744,69.31,56.76483,0,864.4643,0,100.6,2.181,169,0.789,1.429,33.95831,0.598,52.6,60.62,33.94,35.82
"2017-02-26 16:40:00",276929,0.557,286.3,-1.66,69.19,56.9221,0,864.4643,0,100.5,2.182,170,0.815,1.445,33.62093,0.591,52.66,60.62,33.95,35.82
"2017-02-26 16:50:00",276930,0.311,141.8,-1.706,72.19,48.95662,0,864.4896,0,100.5,2.181,170,0.815,1.448,28.708,0.586,52.66,60.62,33.95,35.82
"2017-02-26 17:00:00",276931,0.43,151.1,-1.782,75.61,43.5467,0,864.6835,0,100.5,2.182,170,0.813,1.454,25.28867,0.581,52.6,60.62,33.94,35.82
"2017-02-26 17:10:00",276932,0.679,247.3,-2.128,75.94,33.1672,0,864.7277,0,100.4,2.185,169,0.839,1.455,19.43562,0.586,52.6,60.62,33.94,35.82
"2017-02-26 17:20:00",276933,0.462,196.8,-2.316,76.96,20.65677,0,864.7762,0,100.5,2.184,170,0.85,1.455,12.33917,0.598,52.66,60.62,33.95,35.82
"2017-02-26 17:30:00",276934,0.523,120.3,-2.528,78.72,10.01385,0,864.97,0,100.5,2.186,170,0.85,1.455,5.989522,0.599,52.66,60.62,33.95,35.82
"2017-02-26 17:40:00",276935,0.463,247.6,-2.732,81.2,3.514896,0,864.9799,0,100.5,2.186,170,0.834,1.458,2.2821,0.676,52.66,60.62,33.95,35.82
"2017-02-26 17:50:00",276936,0.57,257.7,-2.823,82.2,0.2280457,0,865.0095,0,100.5,2.187,173,0.825,1.476,0.6558598,0.534,52.6,60.62,33.94,35.82
"2017-02-26 18:00:00",276937,0.48,196.1,-2.878,83.2,0,0,865.0482,0,100.5,2.187,174,0.812,1.482,0.01895638,0,52.66,60.62,33.95,35.82
"2017-02-26 18:10:00",276938,0.482,176.8,-2.956,83.6,0,0,865.2396,0,100.5,2.187,174,0.858,1.46,0,0,52.6,60.62,33.94,35.82
"2017-02-26 18:20:00",276939,0.178,162.3,-3.02,83.1,0,0,865.3666,0,100.4,2.188,170,0.898,1.465,0,0,52.6,60.62,33.94,35.82
"2017-02-26 18:30:00",276940,0.341,283.9,-3.168,81.4,0,0,865.4562,0,100.5,2.188,174,0.924,1.493,0,0,52.66,60.62,33.95,35.82
"2017-02-26 18:40:00",276941,0.156,191.5,-3.228,82.1,0,0,865.5667,0,100.5,2.188,174,0.934,1.515,0,0,52.66,60.62,33.95,35.82
"2017-02-26 18:50:00",276942,0.003,215.2,-3.21,82.3,0,0,865.567,0,100.4,2.189,174,0.923,1.537,0,0,52.66,60.62,33.95,35.82
"2017-02-26 19:00:00",276943,0.246,174.7,-3.296,83.5,0,0,865.5775,0,100.5,2.189,174,0.903,1.541,0,0,52.6,60.62,33.94,35.82
"2017-02-26 19:10:00",276944,0.22,167.6,-3.366,84.6,0,0,865.567,0,100.4,2.189,175,0.871,1.536,0,0,52.66,60.62,33.95,35.82
"2017-02-26 19:20:00",276945,0.115,158.8,-3.36,85.3,0,0,865.7313,0,100.4,2.189,174,0.861,1.511,0.02275278,0,52.6,60.62,33.94,35.82
"2017-02-26 19:30:00",276946,0.241,188.1,-3.475,85.8,0,0,865.9315,0,100.4,2.19,178,0.855,1.499,0.05688196,0,52.6,60.62,33.94,35.82
"2017-02-26 19:40:00",276947,0.009,151.7,-3.475,86,0,0,866.0095,0,100.5,2.189,174,0.852,1.496,0.087219,0,52.66,60.62,33.95,35.82
"2017-02-26 19:50:00",276948,0.268,291.7,-3.604,83.9,0,0,866.0706,0,100.3,2.192,174,0.852,1.484,0.1099718,0,52.66,60.62,33.95,35.82
"2017-02-26 20:00:00",276949,0.299,265.7,-3.776,85.4,0,0,866.0727,0,100.4,2.191,170,0.853,1.468,0.1213482,0,52.66,60.56,33.95,35.81
"2017-02-26 20:10:00",276950,0.184,250.9,-3.857,86.2,0,0,866.0706,0,100.4,2.192,174,0.852,1.462,0.0758426,0,52.66,60.62,33.95,35.82
"2017-02-26 20:20:00",276951,0.355,330.7,-3.819,85,0,0,866.2055,0,100.3,2.192,174,0.852,1.472,0.2502806,0,52.66,60.56,33.95,35.81
"2017-02-26 20:30:00",276952,0.202,281.1,-3.89,87.1,0,0,866.155,0,100.4,2.192,174,0.844,1.49,0.2275279,0,52.6,60.56,33.94,35.81
"2017-02-26 20:40:00",276953,0.308,295,-4.026,90,0,0,866.0727,0,100.4,2.193,175,0.826,1.502,0.07205124,0,52.6,60.56,33.94,35.81
"2017-02-26 20:50:00",276954,0.041,307.6,-4.144,96.7,0,0,866.0627,0,100.3,2.194,175,0.812,1.51,0,0,52.66,60.56,33.95,35.81
"2017-02-26 21:00:00",276955,0.007,308.4,-4.315,98.8,0,0,865.8231,0,100.3,2.194,176,0.816,1.513,0.08343136,0,52.6,60.56,33.94,35.81
"2017-02-26 21:10:00",276956,0.394,228.1,-4.243,99.2,0,0,865.9514,0,100.3,2.194,172,0.831,1.524,0.6598938,0,52.6,60.56,33.94,35.81
"2017-02-26 21:20:00",276957,0.113,13.52,-4.188,99.4,0.2084866,0,866.1118,0,100.2,2.195,170,0.854,1.547,0.3299728,1.093,52.6,60.56,33.94,35.81
"2017-02-26 21:30:00",276958,0.112,258.3,-4.203,100,0.137686,0,866.252,0,100.3,2.194,171,0.865,1.561,0.2275818,0.562,52.6,60.56,33.94,35.81
"2017-02-26 21:40:00",276959,0.225,288,-4.273,100,0.2360447,0,866.5475,0,100.1,2.196,188,0.872,1.573,0.06069039,0.257,52.6,60.56,33.94,35.81
"2017-02-26 21:50:00",276960,0.365,338.3,-4.386,100,0.1613023,0,866.7281,0,100.2,2.196,187,0.881,1.582,0,0,52.6,60.56,33.94,35.81
"2017-02-26 22:00:00",276961,0.282,352.3,-4.419,100,0.1219611,0,866.6521,0,100.2,2.196,184,0.888,1.583,0,0,52.6,60.56,33.94,35.81
"2017-02-26 22:10:00",276962,0.181,278.2,-4.467,100,0.04721111,0,866.6573,0,100.2,2.196,188,0.893,1.586,0,0,52.6,60.56,33.94,35.81
"2017-02-26 22:20:00",276963,0.191,254.6,-4.49,100,0.01967148,0,866.7537,0,100.3,2.195,189,0.891,1.587,0,0,52.66,60.56,33.95,35.81
"2017-02-26 22:30:00",276964,0.289,279.6,-4.624,100,0,0,866.9079,0,100.2,2.197,187,0.888,1.588,0,0,52.6,60.56,33.94,35.81
"2017-02-26 22:40:00",276965,0.266,297.1,-4.757,100,0,0,867.009,0,100.2,2.197,188,0.896,1.589,0,0,52.6,60.56,33.94,35.81
"2017-02-26 22:50:00",276966,0.168,6.258,-4.808,100,0,0,866.9332,0,100,2.199,187,0.898,1.587,0,0,52.6,60.56,33.94,35.81
"2017-02-26 23:00:00",276967,0.148,18.71,-4.83,100,0.007868627,0,866.9231,0,100.1,2.198,189,0.898,1.585,0,0,52.6,60.56,33.94,35.81
"2017-02-26 23:10:00",276968,0.054,321.4,-4.817,100,0,0,866.9181,0,100.2,2.198,189,0.898,1.585,0.003793427,0,52.6,60.56,33.94,35.81
"2017-02-26 23:20:00",276969,0.125,276.6,-4.945,100,0,0,866.9217,0,100.1,2.199,188,0.896,1.589,0,0,52.66,60.56,33.95,35.81
"2017-02-26 23:30:00",276970,0.026,102.7,-4.841,100,0,0,866.9988,0,100.1,2.198,189,0.896,1.589,0.02655399,0,52.6,60.56,33.94,35.81
"2017-02-26 23:40:00",276971,0.154,189.5,-4.81,100,0,0,867.1572,0,100.1,2.199,189,0.898,1.587,0.07207511,0,52.6,60.56,33.94,35.81
"2017-02-26 23:50:00",276972,0.118,86.9,-4.866,100,0,0,867.1066,0,100.1,2.199,188,0.897,1.586,0,0,52.6,60.56,33.94,35.81
